RYR760R LFMU-EBCI

Flight info

Callsign RYR760R
Flight time 1h 20m
Altitude 34000
Route FJR DCT NG DCT MOLEN DCT MTL DCT ETREK DCT MADOT DCT MOPEM DCT CACHI DCT AVLON DCT OKRIX DCT BRY DCT CLM DCT KOPOR DCT SOMIL DCT BELDI DCT VEKIN Z173 ARVOL
Aircraft B738/M-SDE2E3FGHIRWXY/LB1

Departure

Time 2026-04-27 09:27
Airport Béziers Vias airport (LFMU)

Arrival

Time 2026-04-27 10:47
Airport Brussels South Charleroi Airport (EBCI)
Time Latitude Longitude Altitude Speed Heading
2026-04-27 09:05 43.32149 3.35304 55 ft 0 kts 304°
2026-04-27 09:23 43.32150 3.35302 55 ft 1 kts 310°
2026-04-27 09:23 43.32166 3.35302 55 ft 4 kts 13°
2026-04-27 09:24 43.32208 3.35324 53 ft 9 kts 11°
2026-04-27 09:24 43.32296 3.35334 56 ft 15 kts 358°
2026-04-27 09:24 43.32349 3.35220 56 ft 19 kts 274°
2026-04-27 09:24 43.32361 3.34992 57 ft 25 kts 274°
2026-04-27 09:25 43.32374 3.34762 56 ft 23 kts 274°
2026-04-27 09:25 43.32386 3.34545 59 ft 22 kts 274°
2026-04-27 09:25 43.32398 3.34334 54 ft 18 kts 274°
2026-04-27 09:25 43.32382 3.34222 59 ft 9 kts 257°
2026-04-27 09:26 43.32410 3.34211 55 ft 6 kts 62°
2026-04-27 09:26 43.32402 3.34270 60 ft 10 kts 96°
2026-04-27 09:26 43.32383 3.34606 54 ft 73 kts 94°
2026-04-27 09:26 43.32326 3.35627 53 ft 142 kts 94°
2026-04-27 09:27 43.32240 3.37145 498 ft 161 kts 94°
2026-04-27 09:27 43.32144 3.38675 1408 ft 162 kts 94°
2026-04-27 09:27 43.32373 3.40062 1974 ft 178 kts 56°
2026-04-27 09:27 43.33394 3.41221 2385 ft 205 kts 28°
2026-04-27 09:28 43.34773 3.42004 2732 ft 227 kts 18°
2026-04-27 09:28 43.36328 3.42708 3142 ft 244 kts 18°
2026-04-27 09:28 43.37985 3.43585 3610 ft 263 kts 32°
2026-04-27 09:28 43.39235 3.45431 4413 ft 271 kts 62°
2026-04-27 09:29 43.40068 3.47765 5322 ft 273 kts 64°
2026-04-27 09:29 43.40887 3.50151 6219 ft 277 kts 64°
2026-04-27 09:29 43.41728 3.52552 7093 ft 280 kts 63°
2026-04-27 09:29 43.42584 3.54963 7961 ft 283 kts 63°
2026-04-27 09:30 43.43463 3.57405 8784 ft 287 kts 63°
2026-04-27 09:30 43.44341 3.59855 9785 ft 284 kts 64°
2026-04-27 09:30 43.45204 3.62285 10513 ft 292 kts 64°
2026-04-27 09:30 43.46135 3.64881 10780 ft 316 kts 64°
2026-04-27 09:31 43.47154 3.67704 10965 ft 340 kts 63°
2026-04-27 09:31 43.48242 3.70723 11153 ft 363 kts 64°
2026-04-27 09:31 43.49386 3.73905 11566 ft 376 kts 64°
2026-04-27 09:31 43.50552 3.77158 12225 ft 380 kts 64°
2026-04-27 09:32 43.51724 3.80436 12979 ft 383 kts 64°
2026-04-27 09:32 43.52907 3.83748 13721 ft 387 kts 64°
2026-04-27 09:32 43.54098 3.87088 14411 ft 390 kts 64°
2026-04-27 09:32 43.55299 3.90458 15090 ft 394 kts 64°
2026-04-27 09:33 43.56513 3.93871 15794 ft 397 kts 64°
2026-04-27 09:33 43.57761 3.97290 16487 ft 401 kts 60°
2026-04-27 09:33 43.59451 4.00311 17140 ft 405 kts 47°
2026-04-27 09:33 43.61361 4.03178 17832 ft 408 kts 47°
2026-04-27 09:34 43.63298 4.06067 18495 ft 412 kts 47°
2026-04-27 09:34 43.65248 4.08997 19061 ft 415 kts 47°
2026-04-27 09:34 43.67201 4.11962 19671 ft 417 kts 47°
2026-04-27 09:34 43.69150 4.14949 20263 ft 420 kts 47°
2026-04-27 09:35 43.71107 4.17965 20836 ft 423 kts 48°
2026-04-27 09:35 43.73075 4.21006 21392 ft 426 kts 48°
2026-04-27 09:35 43.75057 4.24075 21948 ft 429 kts 47°
2026-04-27 09:35 43.77053 4.27167 22489 ft 432 kts 47°
2026-04-27 09:36 43.79060 4.30279 23014 ft 435 kts 47°
2026-04-27 09:36 43.81056 4.33376 23505 ft 438 kts 47°
2026-04-27 09:36 43.83091 4.36524 23953 ft 440 kts 46°
2026-04-27 09:36 43.85367 4.39382 24379 ft 442 kts 37°
2026-04-27 09:37 43.87942 4.41740 24794 ft 444 kts 28°
2026-04-27 09:37 43.90749 4.43515 25194 ft 445 kts 21°
2026-04-27 09:37 43.93652 4.45030 25590 ft 448 kts 20°
2026-04-27 09:37 43.96592 4.46536 25972 ft 451 kts 20°
2026-04-27 09:38 43.99549 4.48081 26343 ft 453 kts 20°
2026-04-27 09:38 44.02464 4.49642 26697 ft 455 kts 20°
2026-04-27 09:38 44.05430 4.51250 27059 ft 458 kts 20°
2026-04-27 09:38 44.08411 4.52857 27411 ft 460 kts 20°
2026-04-27 09:39 44.11410 4.54451 27753 ft 462 kts 20°
2026-04-27 09:39 44.14417 4.56039 28087 ft 464 kts 20°
2026-04-27 09:39 44.17454 4.57644 28428 ft 466 kts 20°
2026-04-27 09:39 44.20486 4.59251 28874 ft 466 kts 20°
2026-04-27 09:40 44.23512 4.60859 29409 ft 463 kts 20°
2026-04-27 09:40 44.26516 4.62460 29956 ft 461 kts 19°
2026-04-27 09:40 44.29503 4.64053 30409 ft 460 kts 19°
2026-04-27 09:40 44.32463 4.65634 30802 ft 459 kts 19°
2026-04-27 09:41 44.35438 4.67225 31236 ft 457 kts 19°
2026-04-27 09:41 44.38406 4.68814 31683 ft 455 kts 19°
2026-04-27 09:41 44.41360 4.70398 32116 ft 453 kts 19°
2026-04-27 09:41 44.44294 4.71972 32535 ft 452 kts 19°
2026-04-27 09:42 44.47227 4.73547 32953 ft 450 kts 19°
2026-04-27 09:42 44.50144 4.75114 33384 ft 449 kts 19°
2026-04-27 09:42 44.53111 4.76463 33767 ft 446 kts 11°
2026-04-27 09:42 44.56169 4.77126 34143 ft 444 kts
2026-04-27 09:43 44.59275 4.77220 34139 ft 448 kts 355°
2026-04-27 09:43 44.65426 4.75964 34162 ft 446 kts 350°
2026-04-27 09:44 44.71509 4.74519 34155 ft 441 kts 350°
2026-04-27 09:44 44.77563 4.73129 34164 ft 440 kts 350°
2026-04-27 09:45 44.83589 4.71781 34163 ft 440 kts 350°
2026-04-27 09:45 44.89636 4.70437 34163 ft 440 kts 350°
2026-04-27 09:46 44.95693 4.69086 34151 ft 441 kts 350°
2026-04-27 09:46 45.01756 4.67730 34164 ft 442 kts 350°
2026-04-27 09:47 45.07844 4.66364 34165 ft 443 kts 350°
2026-04-27 09:47 45.13943 4.64994 34164 ft 444 kts 350°
2026-04-27 09:48 45.20058 4.63617 34165 ft 445 kts 350°
2026-04-27 09:48 45.26154 4.62224 34154 ft 446 kts 349°
2026-04-27 09:49 45.32291 4.60814 34171 ft 447 kts 349°
2026-04-27 09:49 45.38434 4.59402 34169 ft 447 kts 349°
2026-04-27 09:50 45.44542 4.57995 34181 ft 447 kts 349°
2026-04-27 09:50 45.50694 4.56575 34185 ft 447 kts 349°
2026-04-27 09:51 45.56840 4.55154 34184 ft 447 kts 349°
2026-04-27 09:51 45.61951 4.53969 34188 ft 447 kts 349°
2026-04-27 09:52 45.68094 4.52542 34174 ft 447 kts 349°
2026-04-27 09:52 45.74251 4.51109 34174 ft 447 kts 349°
2026-04-27 09:53 45.80349 4.49691 34172 ft 447 kts 349°
2026-04-27 09:53 45.86508 4.48256 34178 ft 447 kts 349°
2026-04-27 09:54 45.92642 4.46823 34165 ft 447 kts 348°
2026-04-27 09:54 45.98792 4.45382 34163 ft 447 kts 348°
2026-04-27 09:55 46.04895 4.43949 34173 ft 447 kts 348°
2026-04-27 09:55 46.14092 4.41784 34172 ft 446 kts 348°
2026-04-27 09:56 46.20229 4.40335 34166 ft 447 kts 348°
2026-04-27 09:56 46.26360 4.38884 34168 ft 447 kts 348°
2026-04-27 09:57 46.32453 4.37152 34173 ft 446 kts 344°
2026-04-27 09:57 46.38469 4.34993 34175 ft 445 kts 343°
2026-04-27 09:58 46.44487 4.32805 34182 ft 446 kts 343°
2026-04-27 09:58 46.50480 4.30672 34179 ft 447 kts 343°
2026-04-27 09:59 46.56531 4.28541 34177 ft 447 kts 343°
2026-04-27 09:59 46.62593 4.26405 34169 ft 448 kts 343°
2026-04-27 10:00 46.68652 4.24265 34170 ft 448 kts 343°
2026-04-27 10:00 46.74731 4.22112 34169 ft 449 kts 343°
2026-04-27 10:01 46.80812 4.19952 34163 ft 449 kts 343°
2026-04-27 10:01 46.86851 4.17802 34171 ft 449 kts 343°
2026-04-27 10:02 46.92924 4.15635 34171 ft 449 kts 343°
2026-04-27 10:02 46.99000 4.13462 34167 ft 450 kts 343°
2026-04-27 10:03 47.05091 4.11279 34164 ft 450 kts 343°
2026-04-27 10:03 47.10992 4.08386 34169 ft 445 kts 335°
2026-04-27 10:04 47.16706 4.04896 34160 ft 445 kts 334°
2026-04-27 10:04 47.22430 4.01405 34167 ft 445 kts 334°
2026-04-27 10:05 47.28162 3.97971 34159 ft 445 kts 334°
2026-04-27 10:05 47.33897 3.94554 34171 ft 444 kts 334°
2026-04-27 10:06 47.39599 3.91149 34174 ft 445 kts 334°
2026-04-27 10:06 47.45335 3.87713 34173 ft 445 kts 334°
2026-04-27 10:07 47.51070 3.84269 34183 ft 445 kts 334°
2026-04-27 10:07 47.56808 3.80817 34175 ft 445 kts 334°
2026-04-27 10:08 47.62553 3.77371 34184 ft 445 kts 334°
2026-04-27 10:08 47.68297 3.73925 34183 ft 445 kts 334°
2026-04-27 10:09 47.74048 3.70464 34185 ft 445 kts 334°
2026-04-27 10:09 47.79786 3.67000 34190 ft 446 kts 334°
2026-04-27 10:10 47.85508 3.63537 34190 ft 445 kts 334°
2026-04-27 10:10 47.91253 3.60053 34195 ft 445 kts 334°
2026-04-27 10:11 47.96992 3.56564 34198 ft 445 kts 334°
2026-04-27 10:11 48.02728 3.53047 34199 ft 445 kts 334°
2026-04-27 10:12 48.08446 3.49523 34205 ft 445 kts 334°
2026-04-27 10:12 48.14168 3.45990 34212 ft 444 kts 334°
2026-04-27 10:13 48.19883 3.42453 34193 ft 444 kts 334°
2026-04-27 10:13 48.25557 3.38935 34217 ft 444 kts 334°
2026-04-27 10:14 48.31268 3.35384 34208 ft 444 kts 334°
2026-04-27 10:14 48.36994 3.31817 34201 ft 444 kts 334°
2026-04-27 10:15 48.42709 3.28239 34202 ft 444 kts 333°
2026-04-27 10:15 48.48368 3.24636 34213 ft 444 kts 333°
2026-04-27 10:16 48.54052 3.20998 34213 ft 444 kts 333°
2026-04-27 10:16 48.59730 3.17360 34219 ft 443 kts 333°
2026-04-27 10:17 48.65418 3.13711 34218 ft 443 kts 333°
2026-04-27 10:17 48.71099 3.10057 34221 ft 444 kts 333°
2026-04-27 10:18 48.76780 3.06394 34216 ft 444 kts 333°
2026-04-27 10:18 48.82471 3.02716 34220 ft 444 kts 333°
2026-04-27 10:19 48.87952 2.98530 34225 ft 440 kts 326°
2026-04-27 10:19 48.92274 2.94708 34221 ft 440 kts 326°
2026-04-27 10:20 48.97557 2.90006 34232 ft 439 kts 326°
2026-04-27 10:20 49.02848 2.85327 34231 ft 439 kts 326°
2026-04-27 10:21 49.08147 2.80655 34237 ft 439 kts 326°
2026-04-27 10:21 49.13428 2.75992 34233 ft 439 kts 326°
2026-04-27 10:22 49.18710 2.71316 34232 ft 438 kts 326°
2026-04-27 10:22 49.23943 2.66670 34232 ft 438 kts 326°
2026-04-27 10:23 49.29211 2.61982 34233 ft 437 kts 326°
2026-04-27 10:23 49.34476 2.57284 34231 ft 437 kts 326°
2026-04-27 10:24 49.39731 2.52583 34240 ft 437 kts 326°
2026-04-27 10:24 49.44988 2.47869 34238 ft 437 kts 326°
2026-04-27 10:25 49.49156 2.44124 34245 ft 438 kts 326°
2026-04-27 10:25 49.54774 2.40400 34250 ft 444 kts 340°
2026-04-27 10:26 49.60693 2.37844 34243 ft 444 kts 340°
2026-04-27 10:26 49.66639 2.35219 34245 ft 444 kts 340°
2026-04-27 10:27 49.72601 2.32686 34230 ft 448 kts 349°
2026-04-27 10:27 49.75742 2.32764 34216 ft 457 kts
2026-04-27 10:27 49.78834 2.34224 33628 ft 468 kts 21°
2026-04-27 10:28 49.81576 2.36963 32825 ft 476 kts 40°
2026-04-27 10:28 49.83934 2.40563 32072 ft 476 kts 42°
2026-04-27 10:28 49.86267 2.44210 31242 ft 478 kts 42°
2026-04-27 10:28 49.88592 2.47810 30393 ft 479 kts 42°
2026-04-27 10:29 49.91005 2.51484 29337 ft 481 kts 41°
2026-04-27 10:29 49.93408 2.55104 28331 ft 481 kts 41°
2026-04-27 10:29 49.95783 2.58676 27317 ft 483 kts 41°
2026-04-27 10:29 49.98163 2.62282 26674 ft 473 kts 42°
2026-04-27 10:30 50.00551 2.65918 25540 ft 479 kts 42°
2026-04-27 10:30 50.02915 2.69530 24776 ft 474 kts 42°
2026-04-27 10:30 50.05250 2.73107 24006 ft 470 kts 43°
2026-04-27 10:30 50.07570 2.76664 23094 ft 466 kts 43°
2026-04-27 10:31 50.09837 2.80144 22290 ft 460 kts 43°
2026-04-27 10:31 50.12104 2.83630 21513 ft 454 kts 43°
2026-04-27 10:31 50.14337 2.87064 20737 ft 449 kts 43°
2026-04-27 10:31 50.16553 2.90476 19981 ft 444 kts 43°
2026-04-27 10:32 50.18741 2.93850 19241 ft 439 kts 43°
2026-04-27 10:32 50.20901 2.97185 18499 ft 435 kts 43°
2026-04-27 10:32 50.23043 3.00498 17654 ft 432 kts 43°
2026-04-27 10:32 50.25166 3.03785 16872 ft 427 kts 43°
2026-04-27 10:33 50.27261 3.07031 16136 ft 421 kts 43°
2026-04-27 10:33 50.29330 3.10241 15410 ft 416 kts 43°
2026-04-27 10:33 50.31369 3.13412 14694 ft 412 kts 43°
2026-04-27 10:33 50.33387 3.16553 13972 ft 408 kts 43°
2026-04-27 10:34 50.35395 3.19681 13197 ft 404 kts 44°
2026-04-27 10:34 50.37375 3.22769 12472 ft 399 kts 44°
2026-04-27 10:34 50.39326 3.25817 11739 ft 395 kts 44°
2026-04-27 10:34 50.41244 3.28814 11195 ft 388 kts 44°
2026-04-27 10:35 50.43124 3.31743 10970 ft 374 kts 44°
2026-04-27 10:35 50.44935 3.34565 10718 ft 361 kts 44°
2026-04-27 10:35 50.46689 3.37304 10464 ft 349 kts 44°
2026-04-27 10:35 50.48391 3.39964 10223 ft 339 kts 44°
2026-04-27 10:36 50.50020 3.42515 9948 ft 324 kts 44°
2026-04-27 10:36 50.51581 3.44959 9664 ft 310 kts 44°
2026-04-27 10:36 50.53022 3.47383 9383 ft 298 kts 55°
2026-04-27 10:36 50.53791 3.50317 9113 ft 288 kts 80°
2026-04-27 10:37 50.53794 3.53361 8859 ft 279 kts 101°
2026-04-27 10:37 50.53265 3.56258 8613 ft 274 kts 108°
2026-04-27 10:37 50.52654 3.59077 8360 ft 272 kts 109°
2026-04-27 10:37 50.52037 3.61872 8119 ft 270 kts 109°
2026-04-27 10:38 50.51622 3.63753 7931 ft 269 kts 109°
2026-04-27 10:38 50.51021 3.66493 7686 ft 266 kts 109°
2026-04-27 10:38 50.50421 3.69236 7442 ft 264 kts 108°
2026-04-27 10:38 50.49827 3.71960 7198 ft 263 kts 108°
2026-04-27 10:39 50.49238 3.74673 6946 ft 262 kts 108°
2026-04-27 10:39 50.48649 3.77383 6702 ft 262 kts 108°
2026-04-27 10:39 50.48059 3.80099 6466 ft 263 kts 108°
2026-04-27 10:39 50.47472 3.82817 6198 ft 262 kts 108°
2026-04-27 10:40 50.46894 3.85515 5952 ft 260 kts 108°
2026-04-27 10:40 50.46316 3.88199 5697 ft 259 kts 108°
2026-04-27 10:40 50.45738 3.90859 5440 ft 257 kts 108°
2026-04-27 10:40 50.45160 3.93508 5203 ft 256 kts 108°
2026-04-27 10:41 50.44583 3.96149 4941 ft 255 kts 108°
2026-04-27 10:41 50.44008 3.98771 4678 ft 253 kts 108°
2026-04-27 10:41 50.43437 4.01379 4412 ft 251 kts 108°
2026-04-27 10:41 50.42872 4.03962 4199 ft 251 kts 108°
2026-04-27 10:42 50.42305 4.06535 3929 ft 252 kts 108°
2026-04-27 10:42 50.41735 4.09131 3705 ft 252 kts 108°
2026-04-27 10:42 50.41167 4.11744 3431 ft 252 kts 108°
2026-04-27 10:42 50.40597 4.14317 3197 ft 248 kts 108°
2026-04-27 10:43 50.40040 4.16820 3038 ft 241 kts 108°
2026-04-27 10:43 50.39500 4.19257 3067 ft 229 kts 107°
2026-04-27 10:43 50.39284 4.21619 3032 ft 217 kts 83°
2026-04-27 10:43 50.39678 4.23780 3039 ft 197 kts 66°
2026-04-27 10:44 50.40241 4.25715 3039 ft 190 kts 64°
2026-04-27 10:44 50.40820 4.27536 2829 ft 186 kts 62°
2026-04-27 10:44 50.41377 4.29329 2674 ft 181 kts 70°
2026-04-27 10:44 50.41859 4.31174 2469 ft 186 kts 64°
2026-04-27 10:45 50.42419 4.32981 2167 ft 182 kts 63°
2026-04-27 10:45 50.42944 4.34738 1873 ft 169 kts 64°
2026-04-27 10:45 50.43396 4.36306 1858 ft 145 kts 62°
2026-04-27 10:45 50.43801 4.37719 1536 ft 141 kts 63°
2026-04-27 10:46 50.44185 4.39057 1359 ft 129 kts 66°
2026-04-27 10:46 50.44562 4.40365 1197 ft 134 kts 65°
2026-04-27 10:46 50.44950 4.41714 1020 ft 136 kts 65°
2026-04-27 10:46 50.45339 4.43053 813 ft 137 kts 65°
2026-04-27 10:47 50.45730 4.44403 631 ft 133 kts 65°
2026-04-27 10:47 50.46066 4.45560 623 ft 96 kts 65°
2026-04-27 10:47 50.46278 4.46293 612 ft 52 kts 65°
2026-04-27 10:47 50.46372 4.46613 619 ft 21 kts 65°
2026-04-27 10:48 50.46432 4.46820 621 ft 20 kts 64°
2026-04-27 10:48 50.46525 4.46880 615 ft 16 kts 343°
2026-04-27 10:48 50.46623 4.46813 618 ft 15 kts 335°
2026-04-27 10:48 50.46701 4.46873 612 ft 14 kts 64°
2026-04-27 10:49 50.46752 4.46974 616 ft 11 kts 353°
2026-04-27 10:49 50.46810 4.46939 618 ft 5 kts 335°
2026-04-27 10:49 50.46824 4.46929 618 ft 0 kts 334°